www.pogodaiklimat.ru

Погода и климат >> Архив погоды >> Мексика >> Tampico


ПОГОДА в Tampico

  • Прогноз погоды в Tampico
  • Монитор погоды в Tampico
  • Климат города

АРХИВ ПОГОДЫ в Tampico

Время (UTC), дата Ветер
(напр.,м/с)
 
Видим.   Явления Облачность Т
(С)
Тd
(С)
f
(%)
Тe
(С)
Тes
(С)
Комфортность P
(гПа)
Po
(гПа)
Тmin
(С)
Tmax
(С)
R
(мм)
R24
(мм)
S
(см)
15 9.10 З 1 22 км 1/1 400 м
[Cu hum]
+29.0 +24.1 75 +40 +46 очень
душно
1007.0 1006.0
18 9.10 З 1 24 км 3/3 400 м
[Cu hum]
+33.0 +25.0 63 +47 +60 опасность
перегрева
1006.4 1005.4 +24.6 +33.4
21 9.10 ЮЗ 2 24 км 4/3 400 м
[Cu hum Ci]
+34.4 +25.4 60 +49 +56 опасность
перегрева
1003.0 1002.0
00 10.10 ЮВ 5 22 км 4/1 300 м
[Cu hum Ci]
+30.0 +25.2 76 +44 +44 опасность
перегрева
1003.5 1002.5 +24.6 +35.2
03 10.10 В 3 10 км 3/1 400 м
[Cu hum Cs]
+28.2 +24.4 80 +40 +40 очень
душно
1006.9 1005.9
06 10.10 В 1 10 км 4/3 400 м
[Cu hum Ci]
+27.4 +24.7 85 +39 +39 очень
душно
1007.4 1006.4 +35.2
09 10.10 В 1 10 км 3/3 400 м
[Cu hum]
+27.0 +24.8 88 +39 +39 очень
душно
1007.8 1006.8
12 10.10 штиль 0 10 км 3/3 400 м
[Sc diur, vesp]
+26.8 +25.2 91 +39 +39 очень
душно
1007.8 1006.8 +26.4 +35.2
15 10.10 СВ 1 20 км 6/6 400 м
[Cu med, cong]
+29.0 +25.5 81 +43 +45 опасность
перегрева
1010.9 1009.9
18 10.10 З 1 20 км 8/8 400 м
[Cu med, cong]
+32.8 +23.9 60 +45 +48 опасность
перегрева
1011.4 1010.4 +26.4 +33.5
21 10.10 В 2 22 км 5/3 400 м
[Cu med, cong Ci]
+34.0 +26.1 64 +50 +57 опасность
перегрева
1008.5 1007.5
00 11.10 В 3 22 км 4/1 300 м
[Cu hum Ci]
+30.4 +26.4 79 +46 +46 опасность
перегрева
1008.4 1007.4 +26.4 +34.5
03 11.10 В 4 10 км 6/3 400 м
[Cu hum Ci]
+29.0 +25.5 81 +43 +43 опасность
перегрева
1012.0 1011.0
06 11.10 В 4 10 км зарница {гроза} 6/3 400 м
[Cb cap Ac trans Ci]
+28.6 +25.7 84 +42 +42 опасность
перегрева
1013.8 1012.8 +34.5
09 11.10 СВ 1 10 км 4/4 400 м
[Cu med, cong]
+27.4 +24.7 85 +39 +39 очень
душно
1012.4 1011.4
12 11.10 СВ 1 10 км зарница {гроза} 5/5 400 м
[Cb cap]
+25.2 +23.8 92 +34 +34 очень
душно
1013.7 1012.7 +24.8 +34.5
15 11.10 штиль 0 22 км 4/0 1500 м
[Ac trans]
+28.2 +25.2 84 +41 +47 опасность
перегрева
1014.2 1013.2
18 11.10 В 1 22 км 4/4 600 м
[Cu med, cong]
+32.6 +25.7 67 +48 +59 опасность
перегрева
1014.7 1013.7 +24.6 +33.2
21 11.10 В 3 22 км 4/4 600 м
[Cu med, cong]
+32.4 +25.2 66 +46 +51 опасность
перегрева
1012.5 1011.5
00 12.10 В 4 22 км 6/3 300 м
[Cu med, cong Ci]
+29.4 +25.1 78 +43 +43 опасность
перегрева
1012.0 1011.0 +24.6 +33.2
03 12.10 В 4 10 км 3/3 400 м
[Cu hum]
+28.8 +24.7 79 +41 +41 опасность
перегрева
1014.4 1013.4
06 12.10 СВ 3 10 км 1/1 400 м
[Cu hum]
+27.8 +24.5 82 +39 +39 очень
душно
1014.7 1013.7 +33.2
09 12.10 С 2 10 км 4/4 400 м
[Cu med, cong]
+27.0 +24.6 87 +38 +38 очень
душно
1013.6 1012.6
12 12.10 СЗ 1 10 км слабая морось 4/4 300 м
[Cu med, cong]
+26.2 +24.6 91 +37 +37 очень
душно
1014.0 1013.0 0.2
15 12.10 СЗ 1 18 км {морось} 5/5 400 м
[Cu med, cong]
+27.6 +24.6 84 +39 +42 очень
душно
1014.6 1013.6 0.0
18 12.10 В 1 22 км слабая морось 8/6 300 м
[Sc diur, vesp Ac trans]
+32.0 +27.0 75 +50 +55 опасность
перегрева
1013.9 1012.9 0.0
21 12.10 ЮВ 2 22 км {морось} 5/3 480 м
[Cu hum Ac trans Ci]
+33.6 +26.5 66 +50 +56 опасность
перегрева
1010.7 1009.7 0.5
00 13.10 С 2 22 км {морось} 5/0 1500 м
[Ac trans Ci]
+29.4 +25.1 78 +43 +43 опасность
перегрева
1010.2 1009.2 0.5
03 13.10 В 2 10 км 3/0
[Ci]
+28.0 +25.3 85 +41 +41 опасность
перегрева
1012.0 1011.0
06 13.10 Ю 2 10 км 4/1 450 м
[Cu hum Ci]
+27.4 +24.4 84 +39 +39 очень
душно
1012.5 1011.5 +25.2 +33.8
09 13.10 Ю 2 10 км 1/1 400 м
[Cu hum]
+26.8 +24.6 88 +38 +38 очень
душно
1012.1 1011.1
12 13.10 Ю 1 10 км 1/1 400 м
[Cu hum]
+26.0 +24.1 89 +36 +36 очень
душно
1011.6 1010.6 +25.4 +33.8
15 13.10 Ю 1 22 км 3/3 400 м
[Cu hum]
+28.2 +24.4 80 +40 +44 очень
душно
1013.5 1012.5
18 13.10 ЮВ 1 22 км 3/3 400 м
[Cu hum]
+33.6 +26.5 66 +50 +63 опасность
перегрева
1011.7 1010.7 +25.4 +34.4
21 13.10 В 3 22 км 3/3 400 м
[Cu hum]
+33.6 +25.7 63 +48 +54 опасность
перегрева
1008.8 1007.8
00 14.10 В 3 20 км ясно +29.2 +24.0 74 +41 +41 опасность
перегрева
1008.7 1007.7 +25.4 +35.2
03 14.10 В 3 10 км 1/1 400 м
[Cu hum]
+27.8 +24.3 81 +39 +39 очень
душно
1010.2 1009.2
06 14.10 ЮВ 3 10 км 1/1 400 м
[Cu hum]
+27.2 +24.2 84 +38 +38 очень
душно
1010.5 1009.5 +35.2
09 14.10 Ю 2 10 км 1/1 400 м
[Cu hum]
+26.6 +24.4 88 +37 +37 очень
душно
1010.7 1009.7
12 14.10 Ю 1 10 км 4/4 400 м
[Cu hum]
+26.8 +25.2 91 +39 +39 очень
душно
1010.6 1009.6 +25.6 +35.2
15 14.10 СЗ 1 22 км 5/5 400 м
[Cu hum]
+28.2 +24.1 78 +39 +42 очень
душно
1011.2 1010.2
18 14.10 СЗ 1 22 км 4/4 400 м
[Cu med, cong]
+33.2 +25.8 65 +48 +59 опасность
перегрева
1010.9 1009.9 +25.6 +34.5
21 14.10 В 2 22 км 4/4 400 м
[Cu hum]
+33.0 +24.1 60 +45 +51 опасность
перегрева
1008.9 1007.9
00 15.10 ЮВ 1 20 км 1/0
[Ci]
+29.8 +24.4 73 +42 +42 опасность
перегрева
1008.6 1007.6 +25.6 +35.0
03 15.10 В 3 10 км ясно +28.2 +25.0 83 +41 +41 опасность
перегрева
1011.2 1010.2
06 15.10 ЮВ 4 10 км 3/3 400 м
[Cu hum]
+28.4 +25.2 83 +41 +41 опасность
перегрева
1011.5 1010.5 +35.0
09 15.10 ЮВ 2 10 км 3/3 400 м
[Cu hum]
+27.6 +25.5 88 +40 +40 очень
душно
1011.4 1010.4
12 15.10 В 2 10 км гроза без осадков 6/6 400 м
[Cb cap]
+27.2 +25.6 91 +40 +40 очень
душно
1010.7 1009.7 +26.8 +35.0
15 15.10 В 2 15 км слабая морось {гроза} 10/10 400 м
[Sc diur, vesp]
+28.4 +27.1 93 +45 +45 опасность
перегрева
1011.9 1010.9 1
18 15.10 В 3 18 км {дождь, морось} 9/6 300 м
[Sc diur, vesp Ci]
+32.6 +27.9 76 +53 +57 опасность
перегрева
1011.8 1010.8 3
21 15.10 ЮВ 4 20 км 9/4 480 м
[Sc diur, vesp Ci]
+31.8 +26.5 74 +49 +52 опасность
перегрева
1009.7 1008.7
00 16.10 В 4 20 км 8/4 300 м
[Sc diur, vesp Ci]
+29.8 +26.1 81 +45 +45 опасность
перегрева
1011.0 1010.0 +26.8 +33.6
03 16.10 С 7 10 км слабая морось 5/5 400 м
[Sc diur, vesp]
+23.2 +21.2 89 +31 +31 очень
душно
1014.8 1013.8 0.2
06 16.10 С 7 10 км {дождь, морось} 5/5 300 м
[Sc diur, vesp]
+19.0 +16.5 85 +20 +20 1015.5 1014.5 0.7
09 16.10 С 7 10 км 5/5 400 м
[Sc diur, vesp]
+17.8 +14.6 82 +17 +17 1016.2 1015.2
12 16.10 С 7 10 км 8/8 400 м
[Sc diur, vesp]
+16.2 +13.2 82 +15 +15 1017.5 1016.5 +15.6 +33.6

 

Местоположение метеостанции Tampico (Мексика): широта 22.20 долгота -97.85 высота над уровнем моря 25 м.

В архиве по умолчанию представлена погода в Tampico за последнюю неделю. Архивные данные за месяц целиком и за предыдущие месяцы, начиная с января 2011 года, Вы можете получить, выбрав интересующий диапазон дат из раскрывающегося списка и нажав кнопку "Ввод!".


*Определитесь, кто Вы:
робот инопланетянин человек

Внимание! Время в таблицах - всемирное. Для получения местного времени необходимо прибавить поправку, которая в Tampico равна -6 ч.

Смотрите также архив погоды в соседних городах и на ближайших метеорологических станциях:

Погода в Tamuin (Мексика) (96 км)
Погода в Matlapa (Мексика) (139 км)
Погода в Tuxpan (Мексика) (147 км)
Погода в Soto La Marina (Мексика) (178 км)
Погода в Ciudad Victoria (Мексика) (215 км)
Погода в Rio Verde (Мексика) (222 км)
Погода в Tulancingo (Мексика) (242 км)
Погода в Pachuca (Мексика) (248 км)
Погода в Jalapa (Мексика) (311 км)
Погода в San Luis Potosi (Мексика) (314 км)

Пояснения к столбцам:

Ветер - указаны скорость ветра в м/с - средняя за 10 мин, порывы в срок и между сроками (в фигурных скобках) и направление, откуда дует ветер: С - северный, СВ - северо-восточный, В - восточный, ЮВ - юго-восточный, Ю - южный, ЮЗ - юго-западный, З - западный, СЗ - северо-западный.
Видимость - горизонтальная дальность видимости в метрах или километрах. При видимости от 1 до 10 км при отсутствии осадков обычно наблюдается дымка, при ухудшении видимости до 1 км и менее - туман. В сухую погоду видимость может ухудшаться дымом, пылью или мглою.
Явления - указаны атмосферные явления, наблюдавшиеся в срок или в последний час перед сроком; фигурными скобками обозначены явления, наблюдавшиеся между сроками (за 1-3 часа до срока); квадратными скобками обозначены град или гололедные отложения с указанием их диаметра в мм.
Облачность - указаны через наклонную черту общая и нижняя облачность в баллах и высота нижней границы облаков в метрах; квадратными скобками обозначены формы облаков: Ci - перистые, Cs - перисто-слоистые, Cc - перисто-кучевые, Ac - высококучевые, As - высокослоистые, Sc - слоисто-кучевые, Ns - слоисто-дождевые, Cu - кучевые, Cb - кучево-дождевые. Подробнее классификацию облаков см. в Атласе облаков (PDF).
T - Температура воздуха - температура, измеренная на высоте 2 м над землей.
Td - Температура точки росы - температура, при понижении до которой содержащийся в воздухе водяной пар достигнет насыщения.
f - Относительная влажность воздуха - влажноcть воздуха, измеренная на высоте 2 м над землей.
Te - Эффективная температура - температура, которую ощущает одетый по сезону человек в тени. Характеристика душности погоды. При расчете учитывается влияние влажности воздуха и скорости ветра на теплоощущения человека.
Tes - Эффективная температура на солнце - температура, которую ощущает человек, с поправкой на солнечный нагрев. Характеристика знойности погоды. Зависит от высоты солнца над горизонтом, облачности и скорости ветра. Ночью, в пасмурную погоду, а также при ветре 12 м/с и более поправка равна нулю.
P - Атмосферное давление - приведенное к уровню моря атмосферное давление.
Po - Атмосферное давление - измеренное на уровне метеостанции атмосферное давление.
Tmin - Минимальная температура - минимум температуры воздуха на высоте 2 м над землей.
Tmax - Максимальная температура - максимум температуры воздуха на высоте 2 м над землей.
R - Количество осадков - Количество выпавших осадков за период времени, мм. При наведении курсора мыши на число - период времени, за который выпало указанное количество осадков.
R24 - Количество осадков - Количество выпавших осадков за 24 часа, мм.
S - Снежный покров - Высота снежного покрова, см. При наведении курсора мыши на число - состояние снежного покрова и степень покрытия местности в баллах.